User: anonymous
Location: Albany
(35.0000°S, 118.0000°E)
Time: 00:47:06
(UTC-04:00)
Language:

Transit 2A - Orbit

View from above orbital plane
View from above orbital plane
View from above satellite
View from above satellite

Ground track
Ground track

The orbit data is extracted from the following two-line orbital elements,

1 00045U 60007A   14293.80189539  .00000257  00000-0  91987-4 0  2674
2 00045 066.6968 065.7720 0255204 018.0567 088.9473 14.33087848826498
Epoch (UTC): 20 October 2014 19:14:43
Eccentricity: 0.0255204
inclination: 66.6968°
perigee height: 599 km
apogee height: 964 km
right ascension of ascending node: 65.7720°
argument of perigee: 18.0567°
revolutions per day: 14.33087848
mean anomaly at epoch: 88.9473°
orbit number at epoch: 82649

The dashed part of the orbit path shows where the satellite is in the earth's shadow,  

DLR